Danville, VA

9:38 PM EST on February 23, 2017 (GMT -0500)
Danville Regional

Weather History for KDAN - July, 2013

Change the Weather History Date:

Saturday, July 20, 2013

  Actual Average Record
Temperature  
Mean Temperature 82 °F 78 °F  
Max Temperature 90 °F 88 °F 102 °F (1977)
Min Temperature 74 °F 69 °F 58 °F (1969)
Degree Days  
Heating Degree Days 0 0  
Month to date heating degree days 0 0  
Since 1 June heating degree days 0 3  
Since 1 July heating degree days 0 0  
Cooling Degree Days 17 13  
Month to date cooling degree days 290 260  
Year to date cooling degree days 763 701  
Since 1 June cooling degree days 601 557  
Growing Degree Days 32 (Base 50)    
Moisture  
Dew Point 73 °F    
Average Humidity 77    
Maximum Humidity 94    
Minimum Humidity 59    
Precipitation  
Precipitation 0.00 in 0.16 in 1.34 in (2009)
Month to date precipitation 7.88 3.03  
Year to date precipitation 34.03 24.76  
Snow  
Snow 0.00 in - - ()
Month to date snowfall 0.0  
Since 1 June snowfall 0.0  
Since 1 July snowfall 0.0  
Snow Depth 0.00 in    
Sea Level Pressure  
Sea Level Pressure 29.96 in    
Wind  
Wind Speed 6 mph (SW)    
Max Wind Speed 20 mph    
Max Gust Speed 25 mph    
Visibility 10 miles    
Events Thunderstorm    
T = Trace of Precipitation, MM = Missing Value Source: NWS Daily Summary

Daily Weather History Graph

Daily Weather History Graph

Search for Another Location

Airport or City:

Trip Planner

Search our weather history database for the weather conditions in past years. The results will help you decide how hot, cold, wet, or windy it might be!

Date:

Astronomy

Jul. 20, 2013 Rise Set
Actual Time 6:14 AM EDT 8:32 PM EDT
Civil Twilight 5:44 AM EDT 9:02 PM EDT
Nautical Twilight 5:08 AM EDT 9:38 PM EDT
Astronomical Twilight 4:29 AM EDT 10:17 PM EDT
Moon 6:34 PM EDT (7/20) 3:52 AM EDT (7/20)
Length of Visible Light 15h 17m
Length of Day
14h 18m
Waxing Gibbous, 93% of the Moon is Illuminated
Jul 20
Waxing Gibbous
Jul 22
Full
Jul 29
Last Quarter
Aug 6
New
Aug 14
First Quarter

Hourly Weather History & Observations

Time (EDT) Temp. Heat Index Dew Point Humidity Pressure Visibility Wind Dir Wind Speed Gust Speed Precip Events Conditions
12:53 AM 79.0 °F - 72.0 °F 79% 29.97 in 10.0 mi SSW 8.1 mph - N/A   Clear
1:53 AM 78.1 °F - 72.0 °F 81% 29.96 in 10.0 mi SSW 8.1 mph - N/A   Clear
2:53 AM 77.0 °F - 72.0 °F 84% 29.96 in 10.0 mi SW 6.9 mph - N/A   Partly Cloudy
3:53 AM 77.0 °F - 72.0 °F 84% 29.97 in 10.0 mi WSW 6.9 mph - N/A   Clear
4:53 AM 75.9 °F - 71.1 °F 85% 29.96 in 10.0 mi SSW 5.8 mph - N/A   Clear
5:53 AM 73.9 °F - 71.1 °F 91% 29.97 in 10.0 mi SSW 3.5 mph - N/A   Clear
6:53 AM 75.0 °F - 72.0 °F 90% 29.99 in 10.0 mi Calm Calm - N/A   Mostly Cloudy
7:16 AM 75.2 °F - 71.6 °F 89% 30.02 in 10.0 mi SSW 4.6 mph - N/A   Scattered Clouds
7:53 AM 75.9 °F - 72.0 °F 87% 29.99 in 10.0 mi SSW 3.5 mph - N/A   Partly Cloudy
8:05 AM 75.2 °F - 73.4 °F 94% 30.02 in 10.0 mi SSW 3.5 mph - N/A   Mostly Cloudy
8:43 AM 78.8 °F - 73.4 °F 83% 30.02 in 10.0 mi SW 9.2 mph - N/A   Overcast
8:53 AM 78.1 °F - 73.0 °F 84% 29.99 in 10.0 mi SW 8.1 mph - N/A   Overcast
9:53 AM 81.0 °F 86.2 °F 73.9 °F 79% 29.99 in 10.0 mi WSW 12.7 mph - N/A   Overcast
10:02 AM 80.6 °F 85.4 °F 73.4 °F 79% 30.02 in 10.0 mi SW 10.4 mph - N/A   Overcast
10:53 AM 82.0 °F 87.9 °F 73.9 °F 76% 29.99 in 10.0 mi SSW 8.1 mph - N/A   Overcast
11:53 AM 84.9 °F 92.1 °F 73.9 °F 69% 29.99 in 10.0 mi SW 10.4 mph - N/A   Mostly Cloudy
12:53 PM 86.0 °F 93.8 °F 73.9 °F 67% 29.96 in 10.0 mi Variable 4.6 mph 16.1 mph N/A   Mostly Cloudy
1:03 PM 87.8 °F 97.6 °F 75.2 °F 66% 29.98 in 10.0 mi SSW 5.8 mph - N/A   Scattered Clouds
1:53 PM 88.0 °F 96.5 °F 73.9 °F 63% 29.95 in 10.0 mi SW 9.2 mph - N/A   Mostly Cloudy
2:53 PM 88.0 °F 96.5 °F 73.9 °F 63% 29.92 in 10.0 mi SW 10.4 mph - N/A   Mostly Cloudy
3:53 PM 90.0 °F 99.0 °F 73.9 °F 59% 29.89 in 10.0 mi SSW 5.8 mph - N/A   Partly Cloudy
4:34 PM 84.2 °F 89.6 °F 71.6 °F 66% 29.94 in 10.0 mi West 13.8 mph - N/A Thunderstorm Mostly Cloudy
4:53 PM 87.1 °F 95.4 °F 73.9 °F 65% 29.90 in 10.0 mi SSW 13.8 mph 23.0 mph N/A Thunderstorm Thunderstorm
5:39 PM 84.2 °F 89.6 °F 71.6 °F 66% 29.94 in 10.0 mi SSW 8.1 mph - N/A   Clear
5:53 PM 84.9 °F 90.7 °F 72.0 °F 65% 29.91 in 10.0 mi SW 11.5 mph 17.3 mph N/A   Clear
6:53 PM 82.0 °F 86.7 °F 72.0 °F 71% 29.90 in 10.0 mi Calm Calm - N/A   Clear
7:53 PM 80.1 °F 84.2 °F 73.0 °F 79% 29.93 in 10.0 mi Calm Calm - N/A   Clear
8:53 PM 79.0 °F - 73.0 °F 82% 29.93 in 10.0 mi WSW 8.1 mph - N/A   Clear
9:53 PM 77.0 °F - 73.0 °F 88% 29.95 in 10.0 mi SSW 5.8 mph - N/A   Clear
10:53 PM 75.9 °F - 73.0 °F 91% 29.94 in 9.0 mi SW 4.6 mph - N/A   Clear
11:53 PM 75.9 °F - 73.0 °F 91% 29.95 in 10.0 mi SW 4.6 mph - N/A   Clear